| time (UTC) | temp F | wind direction | speed MPH | gust MPH | rain 1hr in | rain 24hr in | rain mn in | humidity % | barometer mb |
| 20260906165035 | 74 | 141 | 7.0 | 12.0 | 0.00 | 0.00 | 0.00 | 81 | 1019.7 |
| 20260906164535 | 73 | 360 | 3.0 | 9.0 | 0.00 | 0.00 | 0.00 | 82 | 1019.7 |
| 20260906164101 | 73 | 136 | 7.0 | 9.0 | 0.00 | 0.00 | 0.00 | 82 | 1019.7 |
| 20260906163540 | 73 | 119 | 6.0 | 12.0 | 0.00 | 0.00 | 0.00 | 82 | 1019.8 |
| 20260906163045 | 73 | 165 | 6.0 | 11.0 | 0.00 | 0.00 | 0.00 | 81 | 1019.8 |
| 20260906162552 | 73 | 124 | 5.0 | 8.0 | 0.00 | 0.00 | 0.00 | 82 | 1019.9 |
| 20260906162059 | 73 | 138 | 4.0 | 8.0 | 0.00 | 0.00 | 0.00 | 82 | 1019.9 |
| 20260906161542 | 73 | 138 | 3.0 | 7.0 | 0.00 | 0.00 | 0.00 | 82 | 1019.8 |
| 20260906161047 | 73 | 119 | 3.0 | 8.0 | 0.00 | 0.00 | 0.00 | 82 | 1019.8 |
| 20260906160554 | 73 | 181 | 4.0 | 10.0 | 0.00 | 0.00 | 0.00 | 82 | 1019.9 |
| 20260906155540 | 73 | 150 | 2.0 | 7.0 | 0.00 | 0.00 | 0.00 | 83 | 1020.0 |
| 20260906155043 | 73 | 111 | 3.0 | 8.0 | 0.00 | 0.00 | 0.00 | 83 | 1020.1 |
| 20260906154539 | 72 | 182 | 4.0 | 9.0 | 0.00 | 0.00 | 0.00 | 84 | 1019.9 |
| 20260906154022 | 72 | 127 | 5.0 | 9.0 | 0.00 | 0.00 | 0.00 | 83 | 1019.9 |
| 20260906153522 | 72 | 219 | 6.0 | 11.0 | 0.00 | 0.00 | 0.00 | 83 | 1019.9 |
| 20260906153022 | 72 | 150 | 5.0 | 12.0 | 0.00 | 0.00 | 0.00 | 83 | 1019.9 |
| 20260906152523 | 72 | 126 | 7.0 | 13.0 | 0.00 | 0.00 | 0.00 | 83 | 1019.8 |
| 20260906152022 | 73 | 140 | 7.0 | 13.0 | 0.00 | 0.00 | 0.00 | 83 | 1019.9 |
| 20260906151522 | 73 | 171 | 7.0 | 12.0 | 0.00 | 0.00 | 0.00 | 84 | 1020.0 |
| 20260906151020 | 72 | 102 | 5.0 | 9.0 | 0.00 | 0.00 | 0.00 | 84 | 1020.2 |
| 20260906150520 | 72 | 360 | 3.0 | 12.0 | 0.00 | 0.00 | 0.00 | 84 | 1020.1 |
| 20260906150020 | 72 | 360 | 3.0 | 12.0 | 0.00 | 0.00 | 0.00 | 84 | 1020.0 |
| 20260906145520 | 72 | 360 | 6.0 | 13.0 | 0.00 | 0.00 | 0.00 | 84 | 1019.9 |
| 20260906145022 | 72 | 161 | 7.0 | 13.0 | 0.00 | 0.00 | 0.00 | 83 | 1020.0 |
| 20260906144523 | 73 | 136 | 6.0 | 12.0 | 0.00 | 0.00 | 0.00 | 83 | 1020.0 |
| 20260906144024 | 73 | 142 | 5.0 | 11.0 | 0.00 | 0.00 | 0.00 | 83 | 1019.9 |
| 20260906143524 | 73 | 185 | 6.0 | 11.0 | 0.00 | 0.00 | 0.00 | 82 | 1019.8 |
| 20260906143025 | 73 | 142 | 7.0 | 13.0 | 0.00 | 0.00 | 0.00 | 82 | 1019.8 |
| 20260906142526 | 73 | 360 | 4.0 | 13.0 | 0.00 | 0.00 | 0.00 | 83 | 1019.7 |
| 20260906142026 | 73 | 360 | 6.0 | 11.0 | 0.00 | 0.00 | 0.00 | 83 | 1019.6 |
| 20260906141526 | 73 | 360 | 5.0 | 9.0 | 0.00 | 0.00 | 0.00 | 83 | 1019.6 |
| 20260906141026 | 73 | 360 | 4.0 | 8.0 | 0.00 | 0.00 | 0.00 | 84 | 1019.7 |
| 20260906140524 | 73 | 360 | 3.0 | 11.0 | 0.00 | 0.00 | 0.00 | 85 | 1019.7 |
| 20260906140025 | 72 | 360 | 6.0 | 11.0 | 0.00 | 0.00 | 0.00 | 86 | 1019.6 |
| 20260906135527 | 72 | 360 | 4.0 | 9.0 | 0.00 | 0.00 | 0.00 | 87 | 1019.6 |
| 20260906135030 | 72 | 360 | 4.0 | 9.0 | 0.00 | 0.00 | 0.00 | 87 | 1019.7 |
| 20260906134533 | 71 | 360 | 3.0 | 8.0 | 0.00 | 0.00 | 0.00 | 87 | 1019.6 |
| 20260906134015 | 71 | 360 | 4.0 | 8.0 | 0.00 | 0.00 | 0.00 | 88 | 1019.5 |
| 20260906133516 | 70 | 360 | 4.0 | 8.0 | 0.00 | 0.00 | 0.00 | 89 | 1019.6 |
| 20260906133016 | 70 | 360 | 5.0 | 8.0 | 0.00 | 0.00 | 0.00 | 89 | 1019.6 |
| 20260906132532 | 70 | 360 | 2.0 | 6.0 | 0.00 | 0.00 | 0.00 | 90 | 1019.5 |
| 20260906132026 | 69 | 360 | 3.0 | 5.0 | 0.00 | 0.00 | 0.00 | 90 | 1019.4 |
| 20260906131522 | 69 | 360 | 3.0 | 6.0 | 0.00 | 0.00 | 0.00 | 90 | 1019.4 |
| 20260906131022 | 69 | 360 | 1.0 | 4.0 | 0.00 | 0.00 | 0.00 | 91 | 1019.3 |
| 20260906130519 | 69 | 360 | 2.0 | 5.0 | 0.00 | 0.00 | 0.00 | 91 | 1019.3 |
| 20260906130038 | 69 | 360 | 2.0 | 5.0 | 0.00 | 0.00 | 0.00 | 91 | 1019.2 |
| 20260906125527 | 69 | 160 | 2.0 | 4.0 | 0.00 | 0.00 | 0.00 | 91 | 1019.2 |
| 20260906125030 | 68 | 360 | 2.0 | 6.0 | 0.00 | 0.00 | 0.00 | 91 | 1019.1 |
| 20260906124532 | 68 | 133 | 1.0 | 6.0 | 0.00 | 0.00 | 0.00 | 91 | 1019.2 |
| 20260906124015 | 68 | 137 | 1.0 | 4.0 | 0.00 | 0.00 | 0.00 | 91 | 1019.2 |
| 20260906123517 | 68 | 128 | 1.0 | 5.0 | 0.00 | 0.00 | 0.00 | 91 | 1019.2 |
| 20260906123017 | 68 | 94 | 1.0 | 5.0 | 0.00 | 0.00 | 0.00 | 91 | 1019.1 |
| 20260906122538 | 68 | 114 | 1.0 | 3.0 | 0.00 | 0.00 | 0.00 | 91 | 1019.1 |
| 20260906122038 | 68 | 122 | 1.0 | 3.0 | 0.00 | 0.00 | 0.00 | 91 | 1019.1 |
| 20260906121540 | 68 | 139 | 1.0 | 2.0 | 0.00 | 0.00 | 0.00 | 91 | 1019.1 |
| 20260906121039 | 68 | 139 | 0.0 | 1.0 | 0.00 | 0.00 | 0.00 | 91 | 1019.1 |
| 20260906120537 | 68 | 139 | 0.0 | 1.0 | 0.00 | 0.00 | 0.00 | 90 | 1019.1 |
| 20260906120035 | 68 | 139 | 0.0 | 1.0 | 0.00 | 0.00 | 0.00 | 90 | 1019.1 |
| 20260906115532 | 68 | 139 | 0.0 | 1.0 | 0.00 | 0.00 | 0.00 | 90 | 1019.0 |
| 20260906115033 | 68 | 139 | 0.0 | 2.0 | 0.00 | 0.00 | 0.00 | 90 | 1019.0 |
| 20260906114534 | 68 | 139 | 0.0 | 2.0 | 0.00 | 0.00 | 0.00 | 90 | 1019.0 |
| 20260906114014 | 68 | 159 | 0.0 | 2.0 | 0.00 | 0.00 | 0.00 | 90 | 1019.0 |
| 20260906113515 | 68 | 159 | 1.0 | 2.0 | 0.00 | 0.00 | 0.00 | 90 | 1018.9 |
| 20260906113034 | 68 | 159 | 1.0 | 2.0 | 0.00 | 0.00 | 0.00 | 91 | 1018.9 |
| 20260906112529 | 68 | 161 | 1.0 | 3.0 | 0.00 | 0.00 | 0.00 | 91 | 1018.8 |
| 20260906112021 | 68 | 132 | 1.0 | 3.0 | 0.00 | 0.00 | 0.00 | 90 | 1018.8 |
| 20260906111522 | 68 | 138 | 2.0 | 3.0 | 0.00 | 0.00 | 0.00 | 90 | 1018.8 |
| 20260906111024 | 68 | 107 | 1.0 | 2.0 | 0.00 | 0.00 | 0.00 | 89 | 1018.7 |
| 20260906110526 | 68 | 101 | 0.0 | 2.0 | 0.00 | 0.00 | 0.00 | 89 | 1018.8 |
| 20260906110016 | 68 | 101 | 0.0 | 0.0 | 0.00 | 0.00 | 0.00 | 89 | 1018.7 |
| 20260906105517 | 68 | 101 | 0.0 | 0.0 | 0.00 | 0.00 | 0.00 | 89 | 1018.7 |
| 20260906105018 | 68 | 101 | 0.0 | 2.0 | 0.00 | 0.00 | 0.00 | 89 | 1018.7 |
| 20260906104518 | 68 | 101 | 0.0 | 3.0 | 0.00 | 0.00 | 0.00 | 89 | 1018.6 |
| 20260906104019 | 68 | 156 | 0.0 | 3.0 | 0.00 | 0.00 | 0.00 | 89 | 1018.5 |
| 20260906103518 | 68 | 116 | 2.0 | 3.0 | 0.00 | 0.00 | 0.00 | 89 | 1018.5 |
| 20260906103019 | 68 | 120 | 1.0 | 2.0 | 0.00 | 0.00 | 0.00 | 88 | 1018.6 |
| 20260906102518 | 68 | 360 | 0.0 | 1.0 | 0.00 | 0.00 | 0.00 | 86 | 1018.7 |
| 20260906102017 | 69 | 360 | 0.0 | 0.0 | 0.00 | 0.00 | 0.00 | 87 | 1018.6 |
| 20260906101536 | 69 | 360 | 0.0 | 1.0 | 0.00 | 0.00 | 0.00 | 87 | 1018.6 |
| 20260906101037 | 69 | 118 | 0.0 | 1.0 | 0.00 | 0.00 | 0.00 | 87 | 1018.6 |
| 20260906100531 | 69 | 118 | 0.0 | 1.0 | 0.00 | 0.00 | 0.00 | 87 | 1018.5 |
| 20260906100033 | 69 | 118 | 0.0 | 1.0 | 0.00 | 0.00 | 0.00 | 87 | 1018.4 |
| 20260906095518 | 69 | 118 | 0.0 | 2.0 | 0.00 | 0.00 | 0.00 | 87 | 1018.3 |
| 20260906095018 | 69 | 112 | 1.0 | 2.0 | 0.00 | 0.00 | 0.00 | 87 | 1018.3 |
| 20260906094518 | 70 | 124 | 0.0 | 2.0 | 0.00 | 0.00 | 0.00 | 87 | 1018.3 |
| 20260906094039 | 70 | 124 | 0.0 | 3.0 | 0.00 | 0.00 | 0.00 | 87 | 1018.3 |
| 20260906093515 | 70 | 124 | 0.0 | 2.0 | 0.00 | 0.00 | 0.00 | 87 | 1018.2 |
| 20260906093015 | 70 | 124 | 1.0 | 2.0 | 0.00 | 0.00 | 0.00 | 87 | 1018.1 |
| 20260906092535 | 70 | 121 | 0.0 | 2.0 | 0.00 | 0.00 | 0.00 | 87 | 1018.1 |
| 20260906092034 | 70 | 140 | 0.0 | 2.0 | 0.00 | 0.00 | 0.00 | 87 | 1018.0 |
| 20260906091516 | 70 | 140 | 0.0 | 2.0 | 0.00 | 0.00 | 0.00 | 87 | 1018.0 |
| 20260906091016 | 70 | 144 | 0.0 | 2.0 | 0.00 | 0.00 | 0.00 | 87 | 1017.9 |
| 20260906090518 | 70 | 138 | 1.0 | 2.0 | 0.00 | 0.00 | 0.00 | 86 | 1018.0 |
| 20260906090021 | 70 | 132 | 0.0 | 2.0 | 0.00 | 0.00 | 0.00 | 87 | 1018.0 |
| 20260906085522 | 70 | 123 | 0.0 | 2.0 | 0.00 | 0.00 | 0.00 | 86 | 1018.0 |
| 20260906085036 | 70 | 113 | 1.0 | 4.0 | 0.00 | 0.00 | 0.00 | 86 | 1017.9 |
| 20260906084536 | 70 | 129 | 0.0 | 4.0 | 0.00 | 0.00 | 0.00 | 86 | 1017.9 |
| 20260906084034 | 70 | 40 | 0.0 | 2.0 | 0.00 | 0.00 | 0.00 | 85 | 1017.9 |
| 20260906083529 | 71 | 360 | 1.0 | 2.0 | 0.00 | 0.00 | 0.00 | 85 | 1017.9 |
| 20260906083029 | 71 | 360 | 0.0 | 2.0 | 0.00 | 0.00 | 0.00 | 85 | 1017.8 |
| 20260906082529 | 71 | 360 | 0.0 | 2.0 | 0.00 | 0.00 | 0.00 | 85 | 1017.8 |
| 20260906082030 | 71 | 360 | 0.0 | 2.0 | 0.00 | 0.00 | 0.00 | 85 | 1017.7 |
| 20260906081531 | 71 | 360 | 0.0 | 3.0 | 0.00 | 0.00 | 0.00 | 85 | 1017.5 |
| 20260906081030 | 71 | 360 | 1.0 | 3.0 | 0.00 | 0.00 | 0.00 | 85 | 1017.5 |
| 20260906080530 | 71 | 360 | 1.0 | 2.0 | 0.00 | 0.00 | 0.00 | 84 | 1017.5 |
| 20260906080032 | 71 | 360 | 0.0 | 4.0 | 0.00 | 0.00 | 0.00 | 85 | 1017.5 |
| 20260906075533 | 72 | 95 | 2.0 | 4.0 | 0.00 | 0.00 | 0.00 | 85 | 1017.5 |
| 20260906075037 | 72 | 146 | 2.0 | 4.0 | 0.00 | 0.00 | 0.00 | 84 | 1017.5 |
| 20260906074539 | 72 | 360 | 1.0 | 4.0 | 0.00 | 0.00 | 0.00 | 84 | 1017.6 |
| 20260906074039 | 72 | 98 | 1.0 | 3.0 | 0.00 | 0.00 | 0.00 | 84 | 1017.6 |
| 20260906073545 | 72 | 360 | 1.0 | 3.0 | 0.00 | 0.00 | 0.00 | 84 | 1017.7 |
| 20260906073052 | 72 | 65 | 1.0 | 4.0 | 0.00 | 0.00 | 0.00 | 84 | 1017.8 |
| 20260906072552 | 72 | 90 | 1.0 | 3.0 | 0.00 | 0.00 | 0.00 | 84 | 1017.8 |
| 20260906072100 | 72 | 140 | 1.0 | 4.0 | 0.00 | 0.00 | 0.00 | 84 | 1017.8 |
| 20260906071538 | 72 | 146 | 2.0 | 4.0 | 0.00 | 0.00 | 0.00 | 84 | 1017.8 |
| 20260906071045 | 72 | 142 | 2.0 | 5.0 | 0.00 | 0.00 | 0.00 | 84 | 1017.9 |
| 20260906070551 | 73 | 116 | 2.0 | 3.0 | 0.00 | 0.00 | 0.00 | 83 | 1018.0 |
| 20260906070056 | 73 | 109 | 1.0 | 4.0 | 0.00 | 0.00 | 0.00 | 84 | 1018.1 |
| 20260906065537 | 73 | 126 | 2.0 | 4.0 | 0.00 | 0.00 | 0.00 | 84 | 1018.1 |
| 20260906065037 | 72 | 157 | 1.0 | 4.0 | 0.00 | 0.00 | 0.00 | 84 | 1018.1 |
| 20260906064518 | 72 | 143 | 1.0 | 4.0 | 0.00 | 0.00 | 0.00 | 85 | 1018.2 |
| 20260906064019 | 72 | 159 | 1.0 | 3.0 | 0.00 | 0.00 | 0.00 | 85 | 1018.2 |
| 20260906063521 | 72 | 113 | 1.0 | 4.0 | 0.00 | 0.00 | 0.00 | 85 | 1018.2 |
| 20260906063017 | 72 | 59 | 2.0 | 4.0 | 0.00 | 0.00 | 0.00 | 85 | 1018.2 |
| 20260906062520 | 72 | 71 | 1.0 | 2.0 | 0.00 | 0.00 | 0.00 | 84 | 1018.1 |
| 20260906062023 | 73 | 123 | 0.0 | 2.0 | 0.00 | 0.00 | 0.00 | 84 | 1018.1 |
| 20260906061522 | 73 | 134 | 1.0 | 4.0 | 0.00 | 0.00 | 0.00 | 84 | 1018.1 |
| 20260906061019 | 73 | 130 | 2.0 | 4.0 | 0.00 | 0.00 | 0.00 | 84 | 1018.1 |
| 20260906060521 | 73 | 150 | 1.0 | 4.0 | 0.00 | 0.00 | 0.00 | 84 | 1018.1 |
| 20260906060021 | 73 | 111 | 1.0 | 3.0 | 0.00 | 0.00 | 0.00 | 84 | 1018.1 |
| 20260906055523 | 73 | 95 | 0.0 | 2.0 | 0.00 | 0.00 | 0.00 | 83 | 1018.2 |
| 20260906055022 | 73 | 91 | 0.0 | 2.0 | 0.00 | 0.00 | 0.00 | 83 | 1018.2 |
| 20260906054521 | 73 | 120 | 0.0 | 3.0 | 0.00 | 0.00 | 0.00 | 83 | 1018.1 |
| 20260906054025 | 73 | 142 | 1.0 | 3.0 | 0.00 | 0.00 | 0.00 | 83 | 1018.1 |
| 20260906053529 | 73 | 137 | 1.0 | 3.0 | 0.00 | 0.00 | 0.00 | 83 | 1018.1 |
| 20260906053028 | 73 | 144 | 2.0 | 3.0 | 0.00 | 0.00 | 0.00 | 83 | 1018.1 |
| 20260906052526 | 73 | 137 | 1.0 | 4.0 | 0.00 | 0.00 | 0.00 | 83 | 1018.1 |
| 20260906052027 | 73 | 109 | 1.0 | 4.0 | 0.00 | 0.00 | 0.00 | 83 | 1018.1 |
| 20260906051530 | 73 | 118 | 1.0 | 3.0 | 0.00 | 0.00 | 0.00 | 83 | 1018.2 |
| 20260906051029 | 73 | 130 | 1.0 | 4.0 | 0.00 | 0.00 | 0.00 | 83 | 1018.2 |
| 20260906050529 | 73 | 136 | 2.0 | 4.0 | 0.00 | 0.00 | 0.00 | 83 | 1018.3 |
| 20260906050029 | 73 | 111 | 1.0 | 3.0 | 0.00 | 0.00 | 0.00 | 83 | 1018.3 |
| 20260906045521 | 73 | 129 | 0.0 | 0.0 | 0.00 | 0.00 | 0.00 | 83 | 1018.5 |
| 20260906045023 | 73 | 107 | 0.0 | 0.0 | 0.00 | 0.00 | 0.00 | 83 | 1018.5 |
| 20260906044525 | 73 | 148 | 0.0 | 0.0 | 0.00 | 0.00 | 0.00 | 82 | 1018.5 |
| 20260906044029 | 73 | 148 | 0.0 | 0.0 | 0.00 | 0.00 | 0.00 | 83 | 1018.5 |
| 20260906043531 | 73 | 148 | 0.0 | 0.0 | 0.00 | 0.00 | 0.00 | 82 | 1018.4 |
| 20260906043014 | 73 | 115 | 0.0 | 2.0 | 0.00 | 0.00 | 0.00 | 82 | 1018.5 |
| 20260906042534 | 73 | 69 | 0.0 | 3.0 | 0.00 | 0.00 | 0.00 | 82 | 1018.5 |
| 20260906042033 | 73 | 113 | 1.0 | 3.0 | 0.00 | 0.00 | 0.00 | 82 | 1018.5 |
| 20260906041533 | 73 | 127 | 0.0 | 1.0 | 0.00 | 0.00 | 0.00 | 82 | 1018.5 |
| 20260906041035 | 74 | 126 | 0.0 | 1.0 | 0.00 | 0.00 | 0.00 | 82 | 1018.5 |
| 20260906040538 | 74 | 110 | 0.0 | 0.0 | 0.00 | 0.00 | 0.00 | 82 | 1018.5 |
| 20260906040037 | 74 | 110 | 0.0 | 0.0 | 0.00 | 0.00 | 0.00 | 82 | 1018.5 |
| 20260906035515 | 74 | 110 | 0.0 | 0.0 | 0.00 | 0.00 | 0.00 | 82 | 1018.5 |
| 20260906035017 | 74 | 110 | 0.0 | 1.0 | 0.00 | 0.00 | 0.00 | 82 | 1018.6 |
| 20260906034518 | 74 | 110 | 0.0 | 1.0 | 0.00 | 0.00 | 0.00 | 81 | 1018.5 |
| 20260906034019 | 74 | 123 | 0.0 | 2.0 | 0.00 | 0.00 | 0.00 | 81 | 1018.5 |
| 20260906033522 | 74 | 103 | 0.0 | 2.0 | 0.00 | 0.00 | 0.00 | 81 | 1018.5 |
| 20260906033021 | 74 | 360 | 0.0 | 1.0 | 0.00 | 0.00 | 0.00 | 81 | 1018.5 |
| 20260906032523 | 75 | 360 | 0.0 | 2.0 | 0.00 | 0.00 | 0.00 | 80 | 1018.5 |
| 20260906032023 | 75 | 360 | 1.0 | 2.0 | 0.00 | 0.00 | 0.00 | 80 | 1018.4 |
| 20260906031523 | 75 | 360 | 1.0 | 3.0 | 0.00 | 0.00 | 0.00 | 80 | 1018.5 |
| 20260906031021 | 75 | 360 | 1.0 | 3.0 | 0.00 | 0.00 | 0.00 | 80 | 1018.4 |
| 20260906030523 | 75 | 122 | 1.0 | 3.0 | 0.00 | 0.00 | 0.00 | 79 | 1018.5 |
| 20260906030021 | 75 | 360 | 2.0 | 3.0 | 0.00 | 0.00 | 0.00 | 79 | 1018.5 |
| 20260906025521 | 75 | 360 | 1.0 | 4.0 | 0.00 | 0.00 | 0.00 | 79 | 1018.5 |
| 20260906025023 | 75 | 360 | 1.0 | 4.0 | 0.00 | 0.00 | 0.00 | 79 | 1018.4 |
| 20260906024521 | 75 | 360 | 2.0 | 3.0 | 0.00 | 0.00 | 0.00 | 79 | 1018.5 |
| 20260906024043 | 75 | 360 | 2.0 | 3.0 | 0.00 | 0.00 | 0.00 | 79 | 1018.6 |
| 20260906023543 | 75 | 360 | 1.0 | 3.0 | 0.00 | 0.00 | 0.00 | 79 | 1018.7 |
| 20260906023049 | 76 | 360 | 0.0 | 3.0 | 0.00 | 0.00 | 0.00 | 79 | 1018.6 |
| 20260906022557 | 76 | 360 | 2.0 | 4.0 | 0.00 | 0.00 | 0.00 | 79 | 1018.6 |
| 20260906022100 | 76 | 360 | 2.0 | 4.0 | 0.00 | 0.00 | 0.00 | 79 | 1018.4 |
| 20260906021540 | 76 | 360 | 1.0 | 4.0 | 0.00 | 0.00 | 0.00 | 79 | 1018.2 |
| 20260906021044 | 76 | 360 | 1.0 | 4.0 | 0.00 | 0.00 | 0.00 | 79 | 1018.2 |
| 20260906020551 | 76 | 360 | 1.0 | 5.0 | 0.00 | 0.00 | 0.00 | 79 | 1018.2 |
| 20260906020100 | 76 | 360 | 1.0 | 5.0 | 0.00 | 0.00 | 0.00 | 78 | 1017.9 |
| 20260906015541 | 76 | 360 | 2.0 | 5.0 | 0.00 | 0.00 | 0.00 | 78 | 1017.6 |
| 20260906015039 | 76 | 163 | 3.0 | 8.0 | 0.00 | 0.00 | 0.00 | 78 | 1017.4 |
| 20260906014539 | 76 | 160 | 3.0 | 6.0 | 0.00 | 0.00 | 0.00 | 77 | 1017.3 |
| 20260906014016 | 76 | 149 | 3.0 | 8.0 | 0.00 | 0.00 | 0.00 | 77 | 1017.3 |
| 20260906013520 | 77 | 172 | 4.0 | 8.0 | 0.00 | 0.00 | 0.00 | 76 | 1017.1 |
| 20260906013023 | 77 | 173 | 3.0 | 9.0 | 0.00 | 0.00 | 0.00 | 76 | 1016.9 |
| 20260906012525 | 77 | 184 | 3.0 | 7.0 | 0.00 | 0.00 | 0.00 | 75 | 1016.9 |
| 20260906012028 | 77 | 142 | 3.0 | 7.0 | 0.00 | 0.00 | 0.00 | 75 | 1016.7 |
| 20260906011527 | 77 | 166 | 3.0 | 8.0 | 0.00 | 0.00 | 0.00 | 74 | 1016.6 |
| 20260906011029 | 78 | 163 | 3.0 | 9.0 | 0.00 | 0.00 | 0.00 | 74 | 1016.5 |
| 20260906010530 | 78 | 144 | 4.0 | 9.0 | 0.00 | 0.00 | 0.00 | 74 | 1016.6 |
| 20260906010031 | 78 | 137 | 5.0 | 9.0 | 0.00 | 0.00 | 0.00 | 73 | 1016.5 |
| 20260906005532 | 78 | 149 | 6.0 | 11.0 | 0.00 | 0.00 | 0.00 | 73 | 1016.4 |
| 20260906005034 | 78 | 140 | 5.0 | 11.0 | 0.00 | 0.00 | 0.00 | 72 | 1016.2 |
| 20260906004531 | 79 | 200 | 4.0 | 10.0 | 0.00 | 0.00 | 0.00 | 72 | 1016.3 |
| 20260906004031 | 79 | 169 | 3.0 | 7.0 | 0.00 | 0.00 | 0.00 | 71 | 1016.3 |
| 20260906003532 | 79 | 132 | 4.0 | 7.0 | 0.00 | 0.00 | 0.00 | 71 | 1016.2 |
| 20260906003035 | 79 | 157 | 4.0 | 8.0 | 0.00 | 0.00 | 0.00 | 70 | 1016.2 |
| 20260906002537 | 80 | 360 | 4.0 | 8.0 | 0.00 | 0.00 | 0.00 | 70 | 1016.2 |
| 20260906002033 | 80 | 157 | 4.0 | 8.0 | 0.00 | 0.00 | 0.00 | 69 | 1016.2 |
| 20260906001516 | 80 | 186 | 5.0 | 9.0 | 0.00 | 0.00 | 0.00 | 69 | 1016.1 |
| 20260906001018 | 81 | 155 | 3.0 | 9.0 | 0.00 | 0.00 | 0.00 | 68 | 1016.0 |
| 20260906000515 | 81 | 151 | 3.0 | 9.0 | 0.00 | 0.00 | 0.00 | 67 | 1016.0 |
| 20260906000017 | 81 | 169 | 4.0 | 9.0 | 0.00 | 0.00 | 0.00 | 67 | 1015.9 |
| 20260905235517 | 82 | 178 | 3.0 | 7.0 | 0.00 | 0.00 | 0.00 | 66 | 1016.0 |
| 20260905235017 | 82 | 119 | 4.0 | 7.0 | 0.00 | 0.00 | 0.00 | 64 | 1015.9 |
| 20260905234521 | 82 | 114 | 2.0 | 8.0 | 0.00 | 0.00 | 0.00 | 64 | 1015.9 |
| 20260905234017 | 82 | 142 | 4.0 | 7.0 | 0.00 | 0.00 | 0.00 | 64 | 1016.0 |
| 20260905233517 | 83 | 136 | 4.0 | 9.0 | 0.00 | 0.00 | 0.00 | 63 | 1016.0 |
| 20260905233018 | 83 | 153 | 3.0 | 9.0 | 0.00 | 0.00 | 0.00 | 64 | 1015.9 |
| 20260905232520 | 83 | 138 | 4.0 | 9.0 | 0.00 | 0.00 | 0.00 | 62 | 1015.9 |
| 20260905232022 | 83 | 130 | 3.0 | 8.0 | 0.00 | 0.00 | 0.00 | 63 | 1015.8 |
| 20260905231521 | 83 | 157 | 3.0 | 9.0 | 0.00 | 0.00 | 0.00 | 64 | 1015.8 |
| 20260905231020 | 83 | 142 | 4.0 | 9.0 | 0.00 | 0.00 | 0.00 | 63 | 1015.7 |
| 20260905230521 | 83 | 143 | 5.0 | 10.0 | 0.00 | 0.00 | 0.00 | 64 | 1015.6 |
| 20260905230024 | 83 | 142 | 7.0 | 11.0 | 0.00 | 0.00 | 0.00 | 64 | 1015.6 |
| 20260905225524 | 83 | 115 | 5.0 | 11.0 | 0.00 | 0.00 | 0.00 | 64 | 1015.5 |
| 20260905225028 | 83 | 121 | 4.0 | 9.0 | 0.00 | 0.00 | 0.00 | 65 | 1015.4 |
| 20260905224529 | 83 | 138 | 3.0 | 7.0 | 0.00 | 0.00 | 0.00 | 65 | 1015.4 |
| 20260905224029 | 83 | 123 | 4.0 | 9.0 | 0.00 | 0.00 | 0.00 | 65 | 1015.3 |
| 20260905223530 | 83 | 142 | 4.0 | 9.0 | 0.00 | 0.00 | 0.00 | 65 | 1015.2 |
| 20260905223029 | 83 | 158 | 5.0 | 12.0 | 0.00 | 0.00 | 0.00 | 64 | 1015.1 |
| 20260905222529 | 84 | 152 | 5.0 | 12.0 | 0.00 | 0.00 | 0.00 | 64 | 1015.1 |
| 20260905222022 | 84 | 173 | 4.0 | 10.0 | 0.00 | 0.00 | 0.00 | 64 | 1015.2 |
| 20260905221522 | 85 | 138 | 4.0 | 9.0 | 0.00 | 0.00 | 0.00 | 63 | 1015.1 |
| 20260905221024 | 85 | 167 | 5.0 | 9.0 | 0.00 | 0.00 | 0.00 | 62 | 1015.1 |
| 20260905220528 | 85 | 123 | 3.0 | 8.0 | 0.00 | 0.00 | 0.00 | 62 | 1015.2 |
| 20260905220024 | 85 | 115 | 3.0 | 7.0 | 0.00 | 0.00 | 0.00 | 64 | 1015.3 |
| 20260905215524 | 85 | 144 | 3.0 | 7.0 | 0.00 | 0.00 | 0.00 | 61 | 1015.4 |
| 20260905215026 | 85 | 121 | 3.0 | 8.0 | 0.00 | 0.00 | 0.00 | 62 | 1015.4 |
| 20260905214529 | 85 | 144 | 4.0 | 8.0 | 0.00 | 0.00 | 0.00 | 62 | 1015.5 |
| 20260905214032 | 85 | 82 | 3.0 | 7.0 | 0.00 | 0.00 | 0.00 | 60 | 1015.5 |
| 20260905213529 | 85 | 91 | 3.0 | 7.0 | 0.00 | 0.00 | 0.00 | 62 | 1015.8 |
| 20260905213029 | 85 | 150 | 5.0 | 8.0 | 0.00 | 0.00 | 0.00 | 61 | 1015.7 |
| 20260905212531 | 85 | 127 | 2.0 | 9.0 | 0.00 | 0.00 | 0.00 | 61 | 1015.8 |
| 20260905212030 | 85 | 151 | 2.0 | 10.0 | 0.00 | 0.00 | 0.00 | 62 | 1015.9 |
| 20260905211529 | 84 | 121 | 5.0 | 10.0 | 0.00 | 0.00 | 0.00 | 61 | 1016.0 |
| 20260905211027 | 84 | 157 | 4.0 | 9.0 | 0.00 | 0.00 | 0.00 | 62 | 1016.0 |
| 20260905210529 | 84 | 138 | 4.0 | 9.0 | 0.00 | 0.00 | 0.00 | 63 | 1016.0 |
| 20260905210031 | 84 | 72 | 3.0 | 9.0 | 0.00 | 0.00 | 0.00 | 63 | 1016.0 |
| 20260905205532 | 84 | 28 | 3.0 | 10.0 | 0.00 | 0.00 | 0.00 | 64 | 1016.0 |
| 20260905205014 | 84 | 32 | 4.0 | 10.0 | 0.00 | 0.00 | 0.00 | 62 | 1015.9 |
| 20260905204543 | 84 | 206 | 2.0 | 8.0 | 0.00 | 0.00 | 0.00 | 63 | 1015.9 |
| 20260905204037 | 84 | 72 | 3.0 | 15.0 | 0.00 | 0.00 | 0.00 | 66 | 1015.9 |
| 20260905203604 | 83 | 79 | 6.0 | 15.0 | 0.00 | 0.00 | 0.00 | 65 | 1016.0 |
| 20260905203101 | 83 | 55 | 4.0 | 10.0 | 0.00 | 0.00 | 0.00 | 67 | 1016.0 |
| 20260905202537 | 82 | 111 | 4.0 | 10.0 | 0.00 | 0.00 | 0.00 | 68 | 1016.2 |
| 20260905202044 | 82 | 143 | 3.0 | 9.0 | 0.00 | 0.00 | 0.00 | 68 | 1016.2 |
| 20260905201553 | 82 | 96 | 3.0 | 13.0 | 0.00 | 0.00 | 0.00 | 70 | 1016.4 |
| 20260905201035 | 82 | 329 | 3.0 | 8.0 | 0.00 | 0.00 | 0.00 | 71 | 1016.7 |
| 20260905200559 | 81 | 81 | 4.0 | 8.0 | 0.00 | 0.00 | 0.00 | 69 | 1016.8 |
| 20260905200057 | 82 | 128 | 3.0 | 8.0 | 0.00 | 0.00 | 0.00 | 70 | 1016.9 |
| 20260905195537 | 81 | 108 | 2.0 | 6.0 | 0.00 | 0.00 | 0.00 | 71 | 1016.9 |
| 20260905195045 | 81 | 305 | 2.0 | 8.0 | 0.00 | 0.00 | 0.00 | 72 | 1016.9 |
| 20260905194551 | 80 | 332 | 3.0 | 10.0 | 0.00 | 0.00 | 0.00 | 73 | 1016.9 |
| 20260905194059 | 80 | 59 | 3.0 | 10.0 | 0.00 | 0.00 | 0.00 | 74 | 1017.0 |
| 20260905193539 | 80 | 67 | 3.0 | 7.0 | 0.00 | 0.00 | 0.00 | 74 | 1017.1 |
| 20260905193048 | 80 | 85 | 3.0 | 8.0 | 0.00 | 0.00 | 0.00 | 75 | 1017.0 |
| 20260905192546 | 79 | 66 | 3.0 | 7.0 | 0.00 | 0.00 | 0.00 | 76 | 1017.3 |
| 20260905192052 | 79 | 44 | 2.0 | 8.0 | 0.00 | 0.00 | 0.00 | 76 | 1017.4 |
| 20260905191559 | 78 | 98 | 3.0 | 8.0 | 0.00 | 0.00 | 0.00 | 76 | 1017.5 |
| 20260905191039 | 78 | 121 | 3.0 | 6.0 | 0.00 | 0.00 | 0.00 | 77 | 1017.5 |
| 20260905190547 | 78 | 104 | 2.0 | 5.0 | 0.00 | 0.00 | 0.00 | 77 | 1017.5 |
| 20260905190052 | 78 | 49 | 1.0 | 4.0 | 0.00 | 0.00 | 0.00 | 77 | 1017.6 |
| 20260905185551 | 78 | 69 | 1.0 | 5.0 | 0.00 | 0.00 | 0.00 | 78 | 1017.8 |
| 20260905185051 | 78 | 331 | 2.0 | 5.0 | 0.00 | 0.00 | 0.00 | 77 | 1017.9 |
| 20260905184547 | 78 | 67 | 1.0 | 4.0 | 0.00 | 0.00 | 0.00 | 78 | 1017.9 |
| 20260905184055 | 78 | 133 | 2.0 | 6.0 | 0.00 | 0.00 | 0.00 | 78 | 1017.7 |
| 20260905183549 | 78 | 162 | 3.0 | 6.0 | 0.00 | 0.00 | 0.00 | 76 | 1017.8 |
| 20260905183057 | 78 | 142 | 3.0 | 5.0 | 0.00 | 0.00 | 0.00 | 78 | 1017.9 |
| 20260905182537 | 78 | 355 | 1.0 | 5.0 | 0.00 | 0.00 | 0.00 | 79 | 1018.0 |
| 20260905182037 | 77 | 189 | 3.0 | 5.0 | 0.00 | 0.00 | 0.00 | 77 | 1017.9 |
| 20260905181543 | 77 | 124 | 0.0 | 6.0 | 0.00 | 0.00 | 0.00 | 79 | 1018.1 |
| 20260905181053 | 78 | 97 | 4.0 | 7.0 | 0.00 | 0.00 | 0.00 | 78 | 1018.0 |
| 20260905180600 | 78 | 113 | 2.0 | 7.0 | 0.00 | 0.00 | 0.00 | 78 | 1018.0 |
| 20260905180054 | 77 | 118 | 2.0 | 4.0 | 0.00 | 0.00 | 0.00 | 80 | 1018.0 |
| 20260905175556 | 76 | 154 | 3.0 | 5.0 | 0.00 | 0.00 | 0.00 | 81 | 1018.1 |
| 20260905175035 | 77 | 360 | 3.0 | 5.0 | 0.00 | 0.00 | 0.00 | 79 | 1018.2 |
| 20260905174542 | 76 | 175 | 2.0 | 7.0 | 0.00 | 0.00 | 0.00 | 81 | 1018.2 |
| 20260905174021 | 75 | 44 | 3.0 | 7.0 | 0.00 | 0.00 | 0.00 | 82 | 1018.4 |
| 20260905173521 | 75 | 103 | 3.0 | 7.0 | 0.00 | 0.00 | 0.00 | 81 | 1018.6 |
| 20260905173020 | 75 | 102 | 3.0 | 8.0 | 0.00 | 0.00 | 0.00 | 82 | 1018.7 |
| 20260905172522 | 75 | 170 | 5.0 | 7.0 | 0.00 | 0.00 | 0.00 | 83 | 1018.7 |
| 20260905172024 | 75 | 122 | 4.0 | 7.0 | 0.00 | 0.00 | 0.00 | 81 | 1018.7 |
| 20260905171527 | 74 | 144 | 2.0 | 9.0 | 0.00 | 0.00 | 0.00 | 83 | 1018.7 |
| 20260905171023 | 74 | 140 | 3.0 | 8.0 | 0.00 | 0.00 | 0.00 | 83 | 1018.6 |
| 20260905170523 | 73 | 128 | 4.0 | 8.0 | 0.00 | 0.00 | 0.00 | 84 | 1018.7 |
| 20260905170024 | 73 | 148 | 2.0 | 5.0 | 0.00 | 0.00 | 0.00 | 84 | 1018.9 |
| 20260905165524 | 73 | 150 | 1.0 | 5.0 | 0.00 | 0.00 | 0.00 | 85 | 1018.7 |